| time (UTC) | temp C | wind direction | speed KPH | gust KPH | rain 1hr cm | rain 24hr cm | rain mn cm | humidity % | barometer mb |
| 20260507024252 | 10 | 79 | 3.2 | 4.8 | 0.03 | 1.24 | 1.24 | 98 | 977.6 |
| 20260507022722 | 11 | 59 | 3.2 | 4.8 | 0.08 | 1.24 | 1.24 | 98 | 977.6 |
| 20260507021152 | 10 | 42 | 3.2 | 3.2 | 0.08 | 1.24 | 1.24 | 98 | 977.6 |
| 20260507015622 | 11 | 81 | 1.6 | 4.8 | 0.08 | 1.24 | 1.24 | 98 | 977.3 |
| 20260507014052 | 11 | 86 | 3.2 | 4.8 | 0.05 | 1.22 | 1.22 | 98 | 978.3 |
| 20260507012522 | 11 | 6 | 3.2 | 4.8 | 0.00 | 1.17 | 1.17 | 98 | 978.7 |
| 20260507010953 | 11 | 143 | 0.0 | 3.2 | 0.00 | 1.17 | 1.17 | 98 | 977.0 |
| 20260507005422 | 11 | 53 | 0.0 | 3.2 | 0.03 | 1.17 | 1.17 | 97 | 976.6 |
| 20260507003852 | 11 | 69 | 3.2 | 4.8 | 0.05 | 1.19 | 1.17 | 97 | 976.6 |
| 20260507002322 | 11 | 50 | 3.2 | 3.2 | 0.08 | 1.22 | 1.17 | 97 | 976.3 |
| 20260507000752 | 11 | 101 | 3.2 | 4.8 | 0.10 | 1.30 | 1.17 | 97 | 975.4 |
| 20260506235222 | 11 | 115 | 0.0 | 4.8 | 0.10 | 1.30 | 1.14 | 96 | 976.0 |
| 20260506233652 | 12 | 101 | 3.2 | 4.8 | 0.10 | 1.27 | 1.12 | 95 | 976.9 |
| 20260506232122 | 12 | 49 | 3.2 | 8.0 | 0.08 | 1.55 | 1.09 | 95 | 977.0 |
| 20260506230552 | 12 | 164 | 0.0 | 1.6 | 0.05 | 1.55 | 1.07 | 93 | 977.6 |
| 20260506225059 | 12 | 197 | 0.0 | 3.2 | 0.03 | 1.52 | 1.04 | 91 | 977.2 |
| 20260506225021 | 12 | 197 | 0.0 | 3.2 | 0.03 | 1.52 | 1.04 | 91 | 977.2 |
| 20260506223451 | 13 | 125 | 1.6 | 1.6 | 0.00 | 1.50 | 1.02 | 89 | 977.3 |
| 20260506221922 | 13 | 157 | 3.2 | 3.2 | 0.00 | 1.50 | 1.02 | 89 | 976.6 |
| 20260506220351 | 13 | 28 | 3.2 | 4.8 | 0.00 | 1.50 | 1.02 | 88 | 977.0 |
| 20260506214822 | 13 | 52 | 0.0 | 1.6 | 0.00 | 1.50 | 1.02 | 88 | 976.6 |
| 20260506213251 | 13 | 21 | 1.6 | 3.2 | 0.00 | 1.50 | 1.02 | 89 | 976.0 |
| 20260506211721 | 13 | 264 | 1.6 | 3.2 | 0.00 | 1.50 | 1.02 | 88 | 976.0 |
| 20260506210151 | 13 | 50 | 0.0 | 3.2 | 0.00 | 1.50 | 1.02 | 90 | 976.3 |
| 20260506204621 | 13 | 99 | 4.8 | 4.8 | 0.00 | 1.50 | 1.02 | 90 | 976.3 |
| 20260506203051 | 13 | 112 | 3.2 | 4.8 | 0.00 | 1.50 | 1.02 | 91 | 976.6 |
| 20260506201521 | 13 | 330 | 0.0 | 3.2 | 0.00 | 1.50 | 1.02 | 91 | 976.6 |
| 20260506195951 | 12 | 160 | 3.2 | 3.2 | 0.00 | 1.50 | 1.02 | 90 | 976.0 |
| 20260506194421 | 12 | 91 | 3.2 | 3.2 | 0.00 | 1.50 | 1.02 | 90 | 976.3 |
| 20260506192852 | 13 | 111 | 0.0 | 8.0 | 0.00 | 1.50 | 1.02 | 90 | 976.0 |
| 20260506191323 | 12 | 93 | 3.2 | 4.8 | 0.00 | 1.50 | 1.02 | 95 | 976.0 |
| 20260506185751 | 12 | 109 | 1.6 | 3.2 | 0.00 | 1.50 | 1.02 | 94 | 977.0 |
| 20260506184221 | 11 | 61 | 1.6 | 3.2 | 0.00 | 1.50 | 1.02 | 94 | 977.0 |
| 20260506182651 | 11 | 46 | 3.2 | 3.2 | 0.03 | 1.50 | 1.02 | 93 | 977.0 |
| 20260506181121 | 11 | 132 | 0.0 | 4.8 | 0.03 | 1.50 | 1.02 | 94 | 976.3 |
| 20260506175551 | 11 | 81 | 3.2 | 3.2 | 0.03 | 1.50 | 1.02 | 96 | 976.0 |
| 20260506174021 | 11 | 67 | 1.6 | 3.2 | 0.03 | 1.50 | 1.02 | 97 | 976.0 |
| 20260506172451 | 11 | 26 | 1.6 | 4.8 | 0.00 | 1.47 | 0.99 | 98 | 976.0 |
| 20260506170921 | 10 | 94 | 3.2 | 4.8 | 0.00 | 1.47 | 0.99 | 98 | 976.0 |
| 20260506165351 | 10 | 70 | 3.2 | 4.8 | 0.00 | 1.47 | 0.99 | 98 | 976.6 |
| 20260506163821 | 10 | 68 | 3.2 | 8.0 | 0.00 | 1.47 | 0.99 | 98 | 976.6 |
| 20260506162251 | 10 | 66 | 1.6 | 4.8 | 0.00 | 1.47 | 0.99 | 98 | 976.3 |
| 20260506160721 | 10 | 18 | 3.2 | 3.2 | 0.00 | 1.47 | 0.99 | 98 | 976.3 |
| 20260506155151 | 10 | 150 | 0.0 | 3.2 | 0.00 | 1.47 | 0.99 | 98 | 976.0 |
| 20260506153621 | 10 | 43 | 3.2 | 3.2 | 0.00 | 1.47 | 0.99 | 98 | 976.3 |
| 20260506152051 | 10 | 74 | 1.6 | 8.0 | 0.00 | 1.47 | 0.99 | 98 | 975.9 |
| 20260506150521 | 10 | 88 | 3.2 | 4.8 | 0.00 | 1.47 | 0.99 | 98 | 976.0 |
| 20260506144951 | 10 | 90 | 4.8 | 9.7 | 0.00 | 1.47 | 0.99 | 99 | 975.6 |
| 20260506143421 | 10 | 45 | 3.2 | 9.7 | 0.00 | 1.47 | 0.99 | 99 | 975.2 |
| 20260506141851 | 10 | 79 | 8.0 | 8.0 | 0.03 | 1.47 | 0.99 | 99 | 974.7 |
| 20260506140321 | 10 | 100 | 3.2 | 8.0 | 0.03 | 1.47 | 0.99 | 98 | 974.3 |
| 20260506134821 | 10 | 93 | 1.6 | 8.0 | 0.05 | 1.47 | 0.99 | 98 | 974.3 |
| 20260506133321 | 10 | 85 | 3.2 | 8.0 | 0.10 | 1.47 | 0.99 | 98 | 974.3 |
| 20260506131821 | 10 | 108 | 0.0 | 4.8 | 0.08 | 1.45 | 0.97 | 98 | 974.3 |
| 20260506130320 | 10 | 47 | 3.2 | 3.2 | 0.10 | 1.45 | 0.97 | 98 | 974.6 |
| 20260506124820 | 10 | 66 | 1.6 | 4.8 | 0.13 | 1.42 | 0.94 | 98 | 974.3 |
| 20260506123320 | 10 | 45 | 3.2 | 4.8 | 0.13 | 1.37 | 0.89 | 98 | 974.3 |
| 20260506121820 | 10 | 94 | 4.8 | 4.8 | 0.36 | 1.37 | 0.89 | 98 | 974.3 |
| 20260506120320 | 10 | 26 | 3.2 | 8.0 | 0.38 | 1.35 | 0.86 | 98 | 973.9 |
| 20260506114820 | 11 | 95 | 9.7 | 11.3 | 0.41 | 1.30 | 0.81 | 98 | 973.6 |
| 20260506113320 | 11 | 121 | 9.7 | 9.7 | 0.36 | 1.24 | 0.76 | 98 | 972.9 |
| 20260506111820 | 11 | 338 | 3.2 | 4.8 | 0.13 | 1.02 | 0.53 | 98 | 973.2 |
| 20260506110250 | 11 | 103 | 4.8 | 8.0 | 0.08 | 0.97 | 0.48 | 98 | 972.2 |
| 20260506104719 | 11 | 65 | 1.6 | 4.8 | 0.03 | 0.89 | 0.41 | 98 | 972.6 |
| 20260506103150 | 11 | 289 | 1.6 | 3.2 | 0.03 | 0.89 | 0.41 | 98 | 972.6 |
| 20260506101620 | 11 | 139 | 3.2 | 4.8 | 0.08 | 0.89 | 0.41 | 97 | 972.6 |
| 20260506100050 | 11 | 81 | 3.2 | 4.8 | 0.13 | 0.89 | 0.41 | 97 | 971.9 |